[[{"header":{"parameterUnit":"m.s-1","parameterCategory":1,"la1":30.2991,"la2":30.254,"lo1":-89.0895,"lo2":-89.0444,"dy":0.0017,"dx":0.0017,"nx":28,"ny":28,"refTime":"2023-09-17T09:00:00:Z","depth":0,"parameterNumber":2,"parameterNumberName":"U-component_of_WINDS"},"data":[0,0,0,0,0,0,0,0,0,0,0,0,0,0,0,0,0,0,0,0,0,0,0,0,0,0,0,0,0,0,0,0,0,0,0,0,0,0,0,0,0,0,0,0,0,0,0,0,0,0,0,0,0,0,0,0,0,0,0.2324,0.2325,0,0.2365,0.2365,0.2365,0.2365,0.2364,0.2364,0.2363,0.2404,0.2405,0.2407,0,0,0,0,0,0,0,0,0,0,0,0,0,0.2248,0.2249,0.2324,0.2325,0.2325,0.2364,0.2365,0.2366,0.2365,0.2364,0.2364,0.2363,0.2403,0.2405,0.2407,0,0,0,0,0,0,0,0,0,0,0,0,0,0.2284,0.225,0.2324,0.233,0.2331,0.2364,0.2365,0.2366,0.2365,0.2364,0.2363,0.2363,0.2403,0.2405,0.2407,0.2438,0,0,0.2414,0.2415,0,0,0,0,0,0,0,0,0.2282,0.2287,0.2329,0.2329,0.2331,0.2359,0.2353,0.239,0.2365,0.2352,0.2363,0.2362,0.2389,0.2393,0.2402,0.244,0.2442,0.2415,0.2416,0.2417,0.2418,0,0,0,0,0,0,0,0.2279,0.2285,0.234,0.2329,0.233,0.233,0.2335,0.236,0.2375,0.2353,0.2353,0.2358,0.239,0.24,0.2403,0.2442,0.2415,0.2417,0.2418,0.2419,0.2509,0.2509,0,0,0,0,0,0,0.2276,0.2283,0.2339,0.2341,0.2304,0.2333,0.2337,0.2351,0.2374,0.2377,0.2359,0.2358,0.2396,0.24,0.2404,0.2443,0.2417,0.2419,0.2421,0.2508,0.2509,0.251,0,0,0,0,0,0,0.2274,0.2281,0.2337,0.2312,0.2319,0.2335,0.235,0.2352,0.2362,0.2379,0.2381,0.2366,0.2396,0.2401,0.243,0.2444,0.242,0.2423,0.2507,0.2508,0.2509,0.2519,0,0,0,0,0,0,0.2272,0.228,0.2292,0.2313,0.2321,0.2362,0.2351,0.2353,0.2366,0.2365,0.2386,0.2389,0.2395,0.2426,0.2432,0.2447,0.2424,0.2505,0.2507,0.2509,0.2517,0.252,0.2523,0,0,0,0,0,0.2269,0.2292,0.2292,0.2299,0.2336,0.2363,0.2368,0.2375,0.2367,0.2379,0.239,0.2388,0.2442,0.2429,0.2436,0.2451,0.2504,0.2507,0.2509,0.2516,0.252,0.2523,0,0,0,0,0,0,0.2272,0.2295,0.2295,0.2326,0.2342,0.2363,0.2378,0.2378,0.2397,0.2396,0.2404,0.2409,0.2438,0.2447,0.2433,0.2483,0.2472,0.2476,0.2475,0.2479,0.2482,0.2479,0.2426,0,0,0,0,0,0.2276,0.2297,0.2316,0.2341,0.2349,0.2362,0.2374,0.2379,0.2396,0.2403,0.2416,0.2433,0.2454,0.2467,0.2487,0.2519,0.2524,0.2533,0.2536,0.2538,0.2541,0.256,0.2564,0.2517,0.2517,0.2517,0,0,0.2285,0.23,0.2312,0.2342,0.2355,0.2376,0.2368,0.239,0.2406,0.2406,0.2434,0.2445,0.2464,0.2495,0.2509,0.2504,0.2555,0.2541,0.2543,0.2544,0.2562,0.2567,0.2571,0.2518,0.2518,0.2518,0,0,0.2312,0.2325,0.2348,0.2362,0.2383,0.2392,0.2397,0.2418,0.2425,0.2453,0.2454,0.2474,0.2509,0.2523,0.2535,0.2569,0.2568,0.2575,0.259,0.2608,0.2612,0.2615,0.2628,0.2632,0.2578,0.2578,0.2578,0,0.232,0.2352,0.236,0.2383,0.2396,0.2398,0.2421,0.2435,0.2461,0.247,0.2464,0.2509,0.2523,0.2557,0.2566,0.2575,0.2582,0.2573,0.2611,0.2614,0.2617,0.2629,0.2634,0.2579,0.2579,0.2579,0.2579,0,0.2361,0.2383,0.2399,0.2425,0.244,0.2463,0.2475,0.249,0.2493,0.2503,0.2532,0.2549,0.2572,0.2581,0.2584,0.2617,0.2613,0.2609,0.2598,0.2622,0.2634,0.2639,0.258,0.258,0.258,0.2579,0,0,0.2389,0.242,0.2426,0.2438,0.2462,0.248,0.2503,0.2527,0.2539,0.2558,0.2578,0.2609,0.2606,0.2619,0.2624,0.264,0.2667,0.2634,0.2635,0.264,0.2704,0.2707,0.2712,0.2667,0.2668,0.2669,0.2703,0,0.2418,0.246,0.2469,0.2505,0.2526,0.253,0.2551,0.2568,0.2578,0.2597,0.2608,0.263,0.2624,0.2632,0.2648,0.266,0.268,0.2658,0.2686,0.2687,0.2681,0.2718,0.2721,0.2752,0.2707,0.2708,0.2709,0,0.2457,0.2478,0.2516,0.2539,0.2548,0.2566,0.2589,0.2608,0.2628,0.2634,0.265,0.2654,0.2679,0.2668,0.2703,0.2688,0.27,0.2708,0.271,0.2712,0.2699,0.2721,0.2762,0.2766,0.2716,0.2715,0.2715,0,0.2474,0.2511,0.2539,0.255,0.2576,0.2589,0.2601,0.262,0.2635,0.2655,0.2664,0.2687,0.27,0.2718,0.2728,0.2719,0.2763,0.2752,0.2769,0.2769,0.2777,0.2776,0.282,0.2786,0.2786,0.2786,0.2786,0,0.2505,0.2529,0.2547,0.2564,0.2591,0.2602,0.2628,0.264,0.2657,0.2677,0.2682,0.27,0.2713,0.2734,0.2742,0.277,0.2776,0.2782,0.2784,0.2781,0.278,0.2789,0.2787,0.2787,0.2787,0.2786,0.2786,0,0.2528,0.2541,0.2572,0.2596,0.2602,0.2621,0.2641,0.2658,0.2669,0.2694,0.2701,0.2718,0.2743,0.2755,0.2785,0.2791,0.2823,0.2824,0.2816,0.2817,0.2833,0.2831,0.2883,0.289,0.2852,0.2852,0.2852,0,0.2547,0.2565,0.2591,0.2605,0.2617,0.2639,0.2654,0.2666,0.2681,0.2707,0.2721,0.2746,0.2766,0.2806,0.2821,0.2845,0.2846,0.2862,0.2849,0.2846,0.2846,0.2844,0.2847,0.2864,0.2865,0.2865,0.2865,0,0.2579,0.2585,0.2606,0.263,0.2648,0.2668,0.2687,0.2698,0.2713,0.273,0.2756,0.2772,0.2804,0.2829,0.2854,0.2866,0.2868,0.2869,0.2875,0.2872,0.2867,0.287,0.2822,0.2868,0.2868,0.2867,0.2867,0.2867,0.26,0.2617,0.2638,0.2662,0.2678,0.2696,0.2714,0.2728,0.2749,0.2776,0.2782,0.2809,0.283,0.2865,0.2878,0.29,0.2896,0.2903,0.2905,0.2907,0.2908,0.2864,0.2904,0.2904,0.2904,0.2904,0.2904,0,0.2632,0.2646,0.2669,0.2696,0.2715,0.2716,0.2738,0.2754,0.2778,0.2798,0.2818,0.2848,0.2873,0.2891,0.2916,0.293,0.2932,0.2936,0.2935,0.2938,0.2909,0.2902,0.2935,0.2935,0.2935,0.2935,0.2935,0.2935,0.2651,0.268,0.2689,0.2726,0.274,0.2767,0.278,0.2797,0.2813,0.2846,0.2867,0.2879,0.2898,0.2925,0.2948,0.2953,0.2962,0.2966,0.2971,0.2943,0.294,0.2937,0.293,0.2968,0.2968,0.2998,0.2998,0.2998]},{"header":{"parameterUnit":"m.s-1","parameterCategory":1,"la1":30.2991,"la2":30.254,"lo1":-89.0895,"lo2":-89.0444,"dy":0.0017,"dx":0.0017,"nx":28,"ny":28,"refTime":"2023-09-17T09:00:00:Z","depth":0,"parameterNumber":3,"parameterNumberName":"V-component_of_WINDS"},"data":[0,0,0,0,0,0,0,0,0,0,0,0,0,0,0,0,0,0,0,0,0,0,0,0,0,0,0,0,0,0,0,0,0,0,0,0,0,0,0,0,0,0,0,0,0,0,0,0,0,0,0,0,0,0,0,0,0,0,-2.3411,-2.3413,0,-2.3588,-2.359,-2.3592,-2.3691,-2.3691,-2.3691,-2.3692,-2.3868,-2.3873,-2.3877,0,0,0,0,0,0,0,0,0,0,0,0,0,-2.3153,-2.3157,-2.341,-2.3413,-2.3415,-2.3588,-2.359,-2.3593,-2.3691,-2.3691,-2.3692,-2.3692,-2.3867,-2.3872,-2.3877,0,0,0,0,0,0,0,0,0,0,0,0,0,-2.3291,-2.3159,-2.341,-2.3485,-2.3493,-2.3588,-2.3591,-2.3594,-2.3691,-2.3691,-2.3692,-2.3692,-2.3865,-2.3872,-2.3878,-2.391,0,0,-2.3898,-2.3901,0,0,0,0,0,0,0,0,-2.3283,-2.33,-2.3472,-2.348,-2.349,-2.3618,-2.3565,-2.3699,-2.3691,-2.3616,-2.3692,-2.3692,-2.3784,-2.3798,-2.383,-2.3918,-2.3926,-2.3899,-2.3903,-2.3906,-2.3908,0,0,0,0,0,0,0,-2.3273,-2.3293,-2.3481,-2.3474,-2.3485,-2.3509,-2.3529,-2.359,-2.3695,-2.3622,-2.363,-2.365,-2.3789,-2.3823,-2.3835,-2.3928,-2.3899,-2.3905,-2.3909,-2.3911,-2.4055,-2.4054,0,0,0,0,0,0,-2.3252,-2.3285,-2.3475,-2.3486,-2.3385,-2.3513,-2.3535,-2.3576,-2.3695,-2.3713,-2.3649,-2.3654,-2.3812,-2.3827,-2.3841,-2.3888,-2.3906,-2.3912,-2.3916,-2.4055,-2.4054,-2.4054,0,0,0,0,0,0,-2.3246,-2.3268,-2.3468,-2.3388,-2.3415,-2.3517,-2.3562,-2.3579,-2.3614,-2.3715,-2.3734,-2.3665,-2.3813,-2.3832,-2.3893,-2.3895,-2.3915,-2.3921,-2.4055,-2.4055,-2.4054,-2.398,0,0,0,0,0,0,-2.3239,-2.3266,-2.3279,-2.3387,-2.3419,-2.3517,-2.3562,-2.3583,-2.3625,-2.3633,-2.3735,-2.3752,-2.3814,-2.3883,-2.39,-2.3905,-2.3926,-2.4055,-2.4055,-2.4054,-2.3982,-2.3977,-2.3972,0,0,0,0,0,-2.3229,-2.3249,-2.3279,-2.3302,-2.3438,-2.3517,-2.3535,-2.3608,-2.3625,-2.3639,-2.3705,-2.3749,-2.3893,-2.3888,-2.3908,-2.3915,-2.4055,-2.4055,-2.4055,-2.3985,-2.3978,-2.3972,0,0,0,0,0,0,-2.3136,-2.3265,-2.3299,-2.3355,-2.3425,-2.3534,-2.3554,-2.3598,-2.3663,-2.3667,-2.3753,-2.3775,-2.3828,-2.3878,-2.3871,-2.3953,-2.3979,-2.3982,-2.3919,-2.3913,-2.3908,-2.3894,-2.3932,0,0,0,0,0,-2.3123,-2.3177,-2.3287,-2.3325,-2.3359,-2.345,-2.3487,-2.3538,-2.3613,-2.3642,-2.3712,-2.3781,-2.3843,-2.3881,-2.3943,-2.3991,-2.4015,-2.4006,-2.4,-2.3996,-2.3997,-2.4028,-2.4026,-2.4053,-2.4053,-2.4053,0,0,-2.3094,-2.3171,-2.32,-2.3309,-2.3368,-2.3423,-2.3474,-2.3528,-2.3569,-2.3649,-2.3712,-2.3766,-2.385,-2.3905,-2.3933,-2.3948,-2.3996,-2.3995,-2.3991,-2.3995,-2.4028,-2.4025,-2.4023,-2.4053,-2.4053,-2.4053,0,0,-2.307,-2.3134,-2.3174,-2.3234,-2.3325,-2.3387,-2.3396,-2.35,-2.3539,-2.3604,-2.3666,-2.3716,-2.3819,-2.3877,-2.392,-2.3922,-2.3964,-2.3939,-2.3912,-2.3941,-2.3939,-2.3937,-2.3939,-2.3938,-2.3941,-2.3941,-2.394,0,-2.3022,-2.3108,-2.3188,-2.3241,-2.3287,-2.3366,-2.3407,-2.3461,-2.3566,-2.3596,-2.3612,-2.3746,-2.3807,-2.3878,-2.3879,-2.3911,-2.3925,-2.3927,-2.3933,-2.3932,-2.3932,-2.3934,-2.3934,-2.3937,-2.3937,-2.3938,-2.3938,0,-2.3045,-2.3103,-2.3125,-2.3228,-2.3277,-2.3323,-2.3411,-2.345,-2.3498,-2.3557,-2.3623,-2.3701,-2.3781,-2.3802,-2.3847,-2.388,-2.3887,-2.3917,-2.3944,-2.3924,-2.3928,-2.3929,-2.3932,-2.3933,-2.3934,-2.3935,0,0,-2.2963,-2.3114,-2.312,-2.3169,-2.3277,-2.3324,-2.3374,-2.3455,-2.3488,-2.3559,-2.3603,-2.3691,-2.3721,-2.3769,-2.3822,-2.3848,-2.3846,-2.3876,-2.3879,-2.3868,-2.3888,-2.3864,-2.3863,-2.3876,-2.3877,-2.3877,-2.3881,0,-2.2954,-2.305,-2.3126,-2.3193,-2.3249,-2.3326,-2.3371,-2.3441,-2.3499,-2.3554,-2.3618,-2.3679,-2.3713,-2.3744,-2.3773,-2.384,-2.3851,-2.3841,-2.3918,-2.3919,-2.3893,-2.3865,-2.3839,-2.3839,-2.3883,-2.3883,-2.3884,0,-2.2955,-2.3026,-2.3099,-2.3205,-2.3231,-2.327,-2.3351,-2.3403,-2.3486,-2.3527,-2.3583,-2.3639,-2.3696,-2.3719,-2.3799,-2.3791,-2.3827,-2.3865,-2.3867,-2.3876,-2.3899,-2.3873,-2.3841,-2.384,-2.3886,-2.3886,-2.3886,0,-2.2887,-2.3002,-2.3062,-2.3101,-2.3225,-2.3251,-2.3304,-2.3388,-2.3432,-2.3503,-2.3533,-2.3609,-2.365,-2.3708,-2.3784,-2.3793,-2.3856,-2.3885,-2.3891,-2.3889,-2.3899,-2.3897,-2.3871,-2.3923,-2.3923,-2.3923,-2.3923,0,-2.2868,-2.2909,-2.3034,-2.3069,-2.3119,-2.3207,-2.3253,-2.3313,-2.3387,-2.3436,-2.3508,-2.3552,-2.365,-2.3706,-2.3766,-2.3824,-2.3841,-2.3876,-2.3891,-2.3869,-2.3864,-2.3892,-2.3894,-2.3924,-2.3924,-2.3924,-2.3923,0,-2.2799,-2.2884,-2.2954,-2.3068,-2.3098,-2.3129,-2.3227,-2.3265,-2.3329,-2.339,-2.341,-2.3509,-2.3579,-2.3662,-2.3757,-2.3798,-2.3851,-2.3874,-2.3823,-2.3832,-2.3833,-2.3832,-2.3824,-2.3828,-2.3877,-2.3876,-2.3876,0,-2.278,-2.2815,-2.2934,-2.2974,-2.3025,-2.3087,-2.3134,-2.3223,-2.3269,-2.3369,-2.3395,-2.3472,-2.3537,-2.3646,-2.3726,-2.3801,-2.3826,-2.3818,-2.3837,-2.3815,-2.3826,-2.3822,-2.3827,-2.3812,-2.3811,-2.381,-2.381,0,-2.2738,-2.2779,-2.2845,-2.2927,-2.2983,-2.3051,-2.3121,-2.3149,-2.3253,-2.3301,-2.3375,-2.3427,-2.3528,-2.3603,-2.3689,-2.3743,-2.3793,-2.3804,-2.3809,-2.3786,-2.3755,-2.3772,-2.3808,-2.3803,-2.3803,-2.3804,-2.3804,-2.3804,-2.2693,-2.2728,-2.2819,-2.2891,-2.2955,-2.3021,-2.3063,-2.3134,-2.3199,-2.3289,-2.3338,-2.3411,-2.3497,-2.3618,-2.3671,-2.373,-2.3747,-2.3754,-2.3756,-2.3756,-2.375,-2.3748,-2.3745,-2.3746,-2.3746,-2.3746,-2.3747,0,-2.2654,-2.2717,-2.2783,-2.2882,-2.2939,-2.2986,-2.3068,-2.3112,-2.3177,-2.3253,-2.3318,-2.3405,-2.348,-2.3568,-2.3648,-2.3678,-2.3704,-2.3696,-2.3694,-2.3706,-2.373,-2.3717,-2.3675,-2.3675,-2.3675,-2.3675,-2.3675,-2.3675,-2.2639,-2.2702,-2.2755,-2.2851,-2.2914,-2.2989,-2.3032,-2.3093,-2.3155,-2.325,-2.3313,-2.3372,-2.3453,-2.3541,-2.3612,-2.3636,-2.3662,-2.3647,-2.3678,-2.3698,-2.3704,-2.371,-2.3698,-2.3652,-2.3652,-2.365,-2.365,-2.3649]}]]